Location: Unspecified
(0.0000°N, 0.0000°E)
Time: 07:44:22
(UTC+00:00)

Kosmos-648 - Pass Details

Date: 03 July 2022
Orbit: 1437 x 1489 km, 74.0° (Epoch: 16 August)

Event Time Altitude Azimuth Distance (km) Brightness Sun altitude
Rises 20:08:27 0° 357° (N) 4,600 ? -28.3°
Reaches altitude 10° 20:11:27 10° 2° (N) 3,623 ? -29.0°
Enters shadow 20:19:55 57° 75° (ENE) 1,710 ? -30.9°
